weather.gov     
National Weather Service

Terminal Aerodrome Forecast
NWS Homepage
This page is being discontinued on March 12, 2014.
The same data is available at this site. Please update your bookmarks.
Thank you, and we apologize for the inconvenience.
Please send an email to SR-SRH.Webmaster@noaa.gov with any concerns.


Current Version
Previous Version:    01  02  03  04  05  06  07  08  09  10  11  12  13  14  15  16  17  18  19  20  21  22  23  
[Printable]
249
FTUS42 KMHX 250500
TAFEWN
TAF
KEWN 250531Z 2506/2606 00000KT P6SM SKC
     FM251000 16005KT P6SM BKN020 BKN035
     FM251400 19014G22KT P6SM VCSH SCT020 BKN035
     FM252000 21012G22KT P6SM VCTS BKN035CB
     FM260300 24009KT P6SM SCT250=


U.S. Dept. of Commerce
NOAA National Weather Service
1325 East West Highway
Silver Spring, MD 20910
E-mail: w-nws.webmaster@noaa.gov
Page last modified: May 16, 2007
NATIONAL WEATHER SERVICE: for Safety, for Work, for Fun - FOR LIFE